Location: ??
(35.4627°N, 139.3695°E)
Time: 06:18:35
(UTC+00:00)

NOSS 3-4 (C) - Pass Details

Date: 25 November 2020
Orbit: 879 x 1333 km, 63.4° (Epoch: 31 December)

Event Time Altitude Azimuth Distance (km) Brightness Sun altitude
Exits shadow 19:21:56 30° 208° (SSW) 1,539 4.3 -25.4°
Maximum altitude 19:25:01 87° 122° (ESE) 897 3.2 -24.8°
Drops below altitude 10° 19:31:06 10° 32° (NNE) 2,645 6.0 -23.6°
Sets 19:33:44 0° 32° (NNE) 3,642 6.8 -23.1°
